| time (UTC) | temp F | wind direction | speed MPH | gust MPH | rain 1hr in | rain 24hr in | rain mn in | humidity % | barometer mb |
| 20260507192239 | 66 | 216 | 4.0 | 32.0 | 0.00 | 0.00 | 0.00 | 16 | 1016.3 |
| 20260507191240 | 65 | 179 | 4.0 | 11.0 | 0.00 | 0.00 | 0.00 | 15 | 1016.6 |
| 20260507190243 | 64 | 174 | 0.0 | 6.0 | 0.00 | 0.00 | 0.00 | 15 | 1016.8 |
| 20260507184143 | 62 | 230 | 1.0 | 13.0 | 0.00 | 0.00 | 0.00 | 15 | 1017.5 |
| 20260507182052 | 63 | 182 | 3.0 | 12.0 | 0.00 | 0.00 | 0.00 | 16 | 1017.7 |
| 20260507181108 | 61 | 178 | 3.0 | 11.0 | 0.00 | 0.00 | 0.00 | 16 | 1017.8 |
| 20260507180054 | 61 | 206 | 0.0 | 5.0 | 0.00 | 0.00 | 0.00 | 17 | 1018.2 |
| 20260507175116 | 60 | 213 | 1.0 | 3.0 | 0.00 | 0.00 | 0.00 | 16 | 1018.5 |
| 20260507171842 | 58 | 209 | 0.0 | 3.0 | 0.00 | 0.01 | 0.00 | 17 | 1019.0 |
| 20260507170837 | 58 | 186 | 0.0 | 3.0 | 0.00 | 0.01 | 0.00 | 19 | 1019.1 |
| 20260507165823 | 57 | 192 | 0.0 | 9.0 | 0.00 | 0.01 | 0.00 | 19 | 1019.2 |
| 20260507164803 | 58 | 186 | 0.0 | 0.0 | 0.00 | 0.01 | 0.00 | 20 | 1019.5 |
| 20260507163828 | 56 | 186 | 0.0 | 0.0 | 0.00 | 0.01 | 0.00 | 19 | 1019.6 |
| 20260507162754 | 55 | 209 | 0.0 | 0.0 | 0.00 | 0.01 | 0.00 | 19 | 1019.9 |
| 20260507161732 | 55 | 213 | 0.0 | 7.0 | 0.00 | 0.01 | 0.00 | 20 | 1020.0 |
| 20260507160718 | 55 | 214 | 0.0 | 0.0 | 0.00 | 0.01 | 0.00 | 20 | 1020.0 |
| 20260507155651 | 54 | 0 | 0.0 | 3.0 | 0.00 | 0.01 | 0.00 | 21 | 1020.0 |
| 20260507152401 | 52 | 351 | 0.0 | 4.0 | 0.00 | 0.01 | 0.00 | 21 | 1020.4 |
| 20260507151350 | 52 | 350 | 0.0 | 1.0 | 0.00 | 0.01 | 0.00 | 23 | 1020.5 |
| 20260507150324 | 51 | 350 | 0.0 | 1.0 | 0.00 | 0.01 | 0.00 | 23 | 1020.5 |
| 20260507145257 | 50 | 350 | 0.0 | 0.0 | 0.00 | 0.01 | 0.00 | 24 | 1020.5 |
| 20260507144320 | 49 | 350 | 0.0 | 0.0 | 0.00 | 0.01 | 0.00 | 25 | 1020.5 |
| 20260507143314 | 49 | 350 | 0.0 | 0.0 | 0.00 | 0.01 | 0.00 | 27 | 1020.6 |
| 20260507142321 | 47 | 350 | 0.0 | 0.0 | 0.00 | 0.01 | 0.00 | 28 | 1020.7 |
| 20260507141343 | 45 | 350 | 0.0 | 0.0 | 0.00 | 0.01 | 0.00 | 30 | 1020.8 |
| 20260507140314 | 43 | 350 | 0.0 | 0.0 | 0.00 | 0.01 | 0.00 | 32 | 1020.7 |
| 20260507135313 | 42 | 350 | 0.0 | 0.0 | 0.00 | 0.01 | 0.00 | 34 | 1020.7 |
| 20260507134334 | 40 | 350 | 0.0 | 0.0 | 0.00 | 0.01 | 0.00 | 37 | 1020.6 |
| 20260507133310 | 38 | 350 | 0.0 | 0.0 | 0.00 | 0.01 | 0.00 | 37 | 1020.5 |
| 20260507131155 | 34 | 350 | 0.0 | 0.0 | 0.00 | 0.01 | 0.00 | 43 | 1020.4 |
| 20260507130129 | 32 | 350 | 0.0 | 0.0 | 0.00 | 0.01 | 0.00 | 45 | 1020.3 |
| 20260507125112 | 30 | 350 | 0.0 | 0.0 | 0.00 | 0.01 | 0.00 | 48 | 1020.4 |
| 20260507122933 | 28 | 350 | 0.0 | 0.0 | 0.00 | 0.01 | 0.00 | 50 | 1020.3 |
| 20260507121952 | 27 | 350 | 0.0 | 0.0 | 0.00 | 0.01 | 0.00 | 51 | 1020.1 |
| 20260507120919 | 26 | 350 | 0.0 | 0.0 | 0.00 | 0.01 | 0.00 | 51 | 1020.0 |
| 20260507114752 | 27 | 350 | 0.0 | 0.0 | 0.00 | 0.01 | 0.00 | 51 | 1019.9 |
| 20260507113802 | 26 | 350 | 0.0 | 0.0 | 0.00 | 0.01 | 0.00 | 53 | 1019.9 |
| 20260507112746 | 27 | 350 | 0.0 | 0.0 | 0.00 | 0.01 | 0.00 | 51 | 1019.8 |
| 20260507111754 | 27 | 350 | 0.0 | 0.0 | 0.00 | 0.01 | 0.00 | 51 | 1019.8 |
| 20260507110806 | 28 | 350 | 0.0 | 0.0 | 0.00 | 0.01 | 0.00 | 51 | 1019.7 |
| 20260507104702 | 27 | 350 | 0.0 | 0.0 | 0.00 | 0.01 | 0.00 | 53 | 1019.8 |
| 20260507103651 | 27 | 350 | 0.0 | 0.0 | 0.00 | 0.01 | 0.00 | 54 | 1019.5 |
| 20260507101508 | 27 | 350 | 0.0 | 0.0 | 0.00 | 0.01 | 0.00 | 54 | 1019.3 |
| 20260507100447 | 28 | 350 | 0.0 | 0.0 | 0.00 | 0.01 | 0.00 | 54 | 1019.3 |
| 20260507095455 | 27 | 350 | 0.0 | 0.0 | 0.00 | 0.01 | 0.00 | 54 | 1019.1 |
| 20260507094443 | 28 | 350 | 0.0 | 0.0 | 0.00 | 0.01 | 0.00 | 53 | 1019.0 |
| 20260507093436 | 28 | 350 | 0.0 | 0.0 | 0.00 | 0.01 | 0.00 | 54 | 1019.1 |
| 20260507092406 | 28 | 350 | 0.0 | 0.0 | 0.00 | 0.01 | 0.00 | 54 | 1019.1 |
| 20260507091416 | 29 | 350 | 0.0 | 0.0 | 0.00 | 0.01 | 0.00 | 53 | 1018.9 |
| 20260507085344 | 30 | 350 | 0.0 | 0.0 | 0.00 | 0.01 | 0.00 | 52 | 1018.6 |
| 20260507084323 | 30 | 350 | 3.0 | 0.0 | 0.00 | 0.01 | 0.00 | 52 | 1018.6 |
| 20260507083317 | 29 | 348 | 6.0 | 11.0 | 0.00 | 0.01 | 0.00 | 54 | 1018.6 |
| 20260507081159 | 28 | 340 | 0.0 | 0.0 | 0.00 | 0.01 | 0.00 | 53 | 1018.6 |
| 20260507075050 | 31 | 340 | 0.0 | 0.0 | 0.00 | 0.01 | 0.00 | 49 | 1018.6 |
| 20260507074039 | 31 | 340 | 0.0 | 0.0 | 0.00 | 0.01 | 0.00 | 49 | 1018.5 |
| 20260507071837 | 31 | 340 | 0.0 | 0.0 | 0.00 | 0.01 | 0.00 | 49 | 1018.5 |
| 20260507070820 | 32 | 340 | 0.0 | 0.0 | 0.00 | 0.01 | 0.00 | 49 | 1018.7 |
| 20260507065811 | 32 | 340 | 0.0 | 0.0 | 0.00 | 0.01 | 0.00 | 48 | 1018.2 |
| 20260507064755 | 32 | 340 | 0.0 | 0.0 | 0.00 | 0.01 | 0.00 | 47 | 1018.3 |
| 20260507063725 | 34 | 340 | 0.0 | 0.0 | 0.00 | 0.01 | 0.00 | 45 | 1018.3 |
| 20260507062748 | 35 | 340 | 0.0 | 3.0 | 0.00 | 0.01 | 0.00 | 42 | 1018.3 |
| 20260507061753 | 36 | 340 | 0.0 | 0.0 | 0.00 | 0.01 | 0.00 | 41 | 1018.3 |
| 20260507060746 | 37 | 340 | 0.0 | 0.0 | 0.00 | 0.01 | 0.00 | 40 | 1018.1 |
| 20260507055738 | 38 | 340 | 0.0 | 0.0 | 0.00 | 0.01 | 0.01 | 38 | 1018.0 |
| 20260507054705 | 39 | 340 | 0.0 | 0.0 | 0.00 | 0.01 | 0.01 | 38 | 1018.0 |
| 20260507053730 | 39 | 340 | 1.0 | 10.0 | 0.00 | 0.01 | 0.01 | 38 | 1017.8 |
| 20260507052725 | 40 | 339 | 4.0 | 11.0 | 0.00 | 0.01 | 0.01 | 36 | 1017.8 |
| 20260507051704 | 40 | 334 | 1.0 | 11.0 | 0.00 | 0.01 | 0.01 | 36 | 1017.6 |
| 20260507050640 | 41 | 336 | 3.0 | 11.0 | 0.00 | 0.01 | 0.01 | 36 | 1017.5 |
| 20260507045605 | 41 | 336 | 1.0 | 13.0 | 0.00 | 0.01 | 0.01 | 35 | 1017.5 |
| 20260507044623 | 41 | 337 | 7.0 | 13.0 | 0.00 | 0.01 | 0.01 | 35 | 1017.4 |
| 20260507042522 | 40 | 332 | 3.0 | 11.0 | 0.00 | 0.01 | 0.01 | 36 | 1017.0 |
| 20260507041526 | 40 | 0 | 0.0 | 8.0 | 0.00 | 0.01 | 0.01 | 36 | 1017.0 |
| 20260507040452 | 40 | 0 | 0.0 | 4.0 | 0.00 | 0.01 | 0.01 | 37 | 1016.8 |
| 20260507035441 | 40 | 0 | 0.0 | 1.0 | 0.00 | 0.01 | 0.01 | 36 | 1016.6 |
| 20260507033240 | 41 | 0 | 0.0 | 0.0 | 0.00 | 0.01 | 0.01 | 35 | 1016.5 |
| 20260507032224 | 42 | 0 | 0.0 | 5.0 | 0.00 | 0.01 | 0.01 | 35 | 1016.3 |
| 20260507031241 | 41 | 0 | 3.0 | 10.0 | 0.00 | 0.01 | 0.01 | 36 | 1016.0 |
| 20260507030257 | 42 | 0 | 3.0 | 10.0 | 0.00 | 0.01 | 0.01 | 37 | 1015.9 |
| 20260507025238 | 42 | 0 | 1.0 | 12.0 | 0.00 | 0.01 | 0.01 | 37 | 1015.9 |
| 20260507023128 | 44 | 0 | 0.0 | 0.0 | 0.00 | 0.01 | 0.01 | 36 | 1015.8 |
| 20260507022128 | 45 | 0 | 0.0 | 0.0 | 0.00 | 0.01 | 0.01 | 36 | 1015.6 |
| 20260507021055 | 46 | 0 | 0.0 | 0.0 | 0.00 | 0.01 | 0.01 | 34 | 1015.3 |
| 20260507020115 | 47 | 313 | 0.0 | 0.0 | 0.00 | 0.01 | 0.01 | 34 | 1015.2 |
| 20260507015040 | 48 | 332 | 1.0 | 5.0 | 0.00 | 0.01 | 0.01 | 33 | 1015.1 |
| 20260507014016 | 49 | 0 | 4.0 | 12.0 | 0.00 | 0.01 | 0.01 | 31 | 1014.9 |
| 20260507011822 | 50 | 0 | 7.0 | 15.0 | 0.00 | 0.01 | 0.01 | 28 | 1014.5 |
| 20260507010754 | 51 | 0 | 4.0 | 19.0 | 0.00 | 0.01 | 0.01 | 26 | 1014.3 |
| 20260507005801 | 51 | 267 | 9.0 | 19.0 | 0.00 | 0.01 | 0.01 | 27 | 1014.0 |
| 20260507004744 | 52 | 331 | 9.0 | 18.0 | 0.00 | 0.01 | 0.01 | 27 | 1013.9 |
| 20260507003726 | 52 | 0 | 8.0 | 21.0 | 0.00 | 0.01 | 0.01 | 26 | 1013.7 |
| 20260507002717 | 52 | 0 | 14.0 | 21.0 | 0.00 | 0.01 | 0.01 | 26 | 1013.6 |
| 20260507001720 | 53 | 0 | 10.0 | 20.0 | 0.00 | 0.01 | 0.01 | 24 | 1013.2 |
| 20260507000721 | 53 | 348 | 11.0 | 25.0 | 0.00 | 0.01 | 0.01 | 25 | 1013.3 |
| 20260506233439 | 54 | 342 | 14.0 | 22.0 | 0.00 | 0.01 | 0.01 | 27 | 1012.7 |
| 20260506232412 | 54 | 0 | 14.0 | 22.0 | 0.00 | 0.01 | 0.01 | 28 | 1012.6 |
| 20260506231345 | 54 | 338 | 13.0 | 20.0 | 0.00 | 0.01 | 0.01 | 29 | 1012.5 |
| 20260506230324 | 54 | 0 | 14.0 | 22.0 | 0.00 | 0.01 | 0.01 | 31 | 1012.5 |
| 20260506224140 | 53 | 0 | 16.0 | 24.0 | 0.00 | 0.01 | 0.01 | 33 | 1012.3 |
| 20260506223119 | 52 | 339 | 15.0 | 24.0 | 0.00 | 0.01 | 0.01 | 33 | 1012.1 |
| 20260506220933 | 52 | 0 | 14.0 | 23.0 | 0.00 | 0.01 | 0.01 | 35 | 1012.0 |
| 20260506215955 | 50 | 342 | 15.0 | 22.0 | 0.00 | 0.01 | 0.01 | 39 | 1011.9 |
| 20260506215005 | 54 | 346 | 16.0 | 24.0 | 0.00 | 0.01 | 0.01 | 36 | 1011.7 |
| 20260506212841 | 52 | 0 | 18.0 | 26.0 | 0.00 | 0.01 | 0.01 | 39 | 1011.5 |
| 20260506211837 | 52 | 334 | 18.0 | 32.0 | 0.00 | 0.01 | 0.01 | 45 | 1011.5 |
| 20260506210833 | 53 | 336 | 20.0 | 32.0 | 0.00 | 0.01 | 0.01 | 38 | 1011.5 |
| 20260506204703 | 52 | 355 | 16.0 | 31.0 | 0.00 | 0.01 | 0.01 | 40 | 1010.9 |
| 20260506203652 | 51 | 0 | 19.0 | 31.0 | 0.00 | 0.01 | 0.01 | 44 | 1011.0 |
| 20260506202646 | 52 | 331 | 20.0 | 29.0 | 0.00 | 0.01 | 0.01 | 36 | 1011.0 |
| 20260506201658 | 52 | 0 | 14.0 | 25.0 | 0.00 | 0.01 | 0.01 | 48 | 1010.7 |
| 20260506200643 | 52 | 329 | 13.0 | 19.0 | 0.00 | 0.01 | 0.01 | 45 | 1010.2 |
| 20260506195615 | 51 | 0 | 13.0 | 24.0 | 0.00 | 0.01 | 0.01 | 48 | 1010.4 |
| 20260506194545 | 50 | 331 | 14.0 | 24.0 | 0.00 | 0.01 | 0.01 | 51 | 1010.1 |
| 20260506193528 | 51 | 0 | 13.0 | 28.0 | 0.00 | 0.01 | 0.01 | 48 | 1010.2 |